Orbital Elements at Epoch 2459200.5 (2020-Dec-17.0) TDB
Reference: JPL 27 (heliocentric ecliptic J2000)
Element | Value | Uncertainty (1-sigma) | Units |
e | .1943747496298865 | 4.2386e-08 | |
a | 2.224144979024582 | 7.5543e-09 | au |
q | 1.791827355586109 | 9.4171e-08 | au |
i | 6.409280073378651 | 3.794e-06 | deg |
node | 264.828704207336 | 3.5797e-05 | deg |
peri | 55.38869770450094 | 3.7054e-05 | deg |
M | 128.1344558344072 | 1.1701e-05 | deg |
tp | 2458769.272454577119 (2019-Oct-12.77245458) | 3.8405e-05 | TDB |
period | 1211.554810463019 3.32 | 6.1725e-06 1.69e-08 | d yr |
n | .2971388474471238 | 1.5138e-09 | deg/d |
Q | 2.656462602463054 | 9.0226e-09 | au |
|
| | Orbit Determination Parameters
Additional Information
|